Regional Weather Roundup
Issued by NWS

Home | Current Version | Previous Version | Text Only | Print | Product List | Glossary On
Versions: 1 2 3 4 5 6 7 8 9 10 11 12 13 14 15 16 17 18 19 20 21 22 23 24 25 26 27 28 29 30 31 32 33 34 35 36 37 38 39 40 41 42 43 44 45 46 47 48 49 50
000
ASUS43 KDMX 020907
RWRIA

WEATHER ROUNDUP FOR IOWA
NATIONAL WEATHER SERVICE DES MOINES IA
400 AM CDT SAT AUG 02 2014

NOTE: "FAIR" INDICATES FEW OR NO CLOUDS BELOW 12,000 FEET WITH NO
SIGNIFICANT WEATHER AND/OR OBSTRUCTIONS TO VISIBILITY.

* - THESE STATIONS ARE NOT NWS STATIONS...THUS NOT UNDER NWS
QUALITY CONTROL.  THEY ALSO DO NOT REPORT WEATHER SUCH
AS PRECIPITATION OR FOG.

IAZ001>003-012>014-020>022-031>034-043>046-021000-
   NORTHWEST IOWA

CITY           SKY/WX    TMP DP  RH WIND       PRES   REMARKS
CARROLL *      PTCLDY    55  55 100 CALM      30.14R
CHEROKEE *     PTCLDY    57  57 100 CALM      30.14S
DENISON *      CLEAR     57  57 100 CALM      30.13S
LE MARS *      CLEAR     57  57 100 CALM      30.14S
ORANGE CITY *  CLEAR     64  55  72 CALM      30.14S
SHELDON *      CLEAR     55  54  94 CALM      30.13S
SIOUX CITY     MOCLDY    61  59  93 CALM      30.13F
SPENCER        PTCLDY    56  54  93 CALM      30.14S
STORM LAKE *   CLEAR     61  61 100 SW5       30.15S
$$

IAZ055>058-069>071-079>083-090>094-021000-
   SOUTHWEST IOWA

CITY           SKY/WX    TMP DP  RH WIND       PRES   REMARKS
ATLANTIC *     PTCLDY    57  57 100 N6        30.13S
AUDUBON *      CLEAR     57  55  94 CALM      30.15S
CLARINDA *     CLEAR     59  59 100 CALM      30.14R FOG
COUNCIL BLFS * CLEAR     63  63 100 NE3       30.12S
CRESTON *      CLEAR     63  61  94 CALM      30.13S
HARLAN  *      CLEAR     59  59 100 N3        30.17S
LAMONI         CLEAR     65  62  90 NE5       30.12S
RED OAK *      CLEAR     61  61 100 CALM      30.13S
SHENANDOAH *   CLEAR     59  59 100 CALM      30.13S
$$

IAZ047>049-059>061-072>074-084-021000-
   CENTRAL IOWA

CITY           SKY/WX    TMP DP  RH WIND       PRES   REMARKS
AMES           CLEAR     57  56  96 CALM      30.12S
ANKENY *       CLEAR     59  59 100 CALM      30.12S
CHARITON *     CLEAR     59  57  94 CALM      30.12S
DES MOINES     CLEAR     64  59  83 W3        30.12R
GRINNELL*      CLEAR     61  59  94 CALM      30.12S
KNOXVILLE *    CLEAR     61  59  94 NW7       30.10F
MARSHALLTOWN   CLEAR     60  58  92 CALM      30.12R
PELLA *        CLEAR     61  59  94 CALM      30.12S
PERRY *          N/A     59  57  94 W5        30.14R FOG
$$

IAZ004>006-015-016-023>025-035-036-021000-
   NORTH CENTRAL IOWA

CITY           SKY/WX    TMP DP  RH WIND       PRES   REMARKS
ALGONA *       CLEAR     63  61  94 SW6       30.13S
CLARION *      CLEAR     59  57  94 CALM      30.13R
ESTHERVILLE    CLEAR     58  56  93 W6        30.13S
FORT DODGE *   CLEAR     59  57  94 CALM      30.14S
MASON CITY     CLEAR     59  57  93 CALM      30.14S
FOREST CITY *  CLEAR     55  55 100 CALM      30.13S
IOWA FALLS *     N/A     61  57  88 CALM      30.14R
$$

IAZ007>011-017>019-026>030-037>042-050>054-066-021000-
   NORTHEAST IOWA

CITY           SKY/WX    TMP DP  RH WIND       PRES   REMARKS
CEDAR RAPIDS   CLEAR     61  60  97 W5        30.10S
CHARLES CITY * CLEAR     59  57  94 E6        30.13R
CLINTON *        N/A     59  57  94 CALM      30.14S VSB 1/4
DECORAH *      CLOUDY    61  57  88 CALM      30.12R
DUBUQUE        CLEAR     58  57  97 SW5       30.12R
MONTICELLO *   CLEAR     57  57 100 CALM      30.11R
OELWEIN *      CLEAR     59  57  94 CALM      30.13R
WATERLOO       CLEAR     59  57  93 CALM      30.11R
$$

IAZ064-065-067-068-078-021000-
   EAST CENTRAL IOWA

CITY           SKY/WX    TMP DP  RH WIND       PRES   REMARKS
DAVENPORT      CLEAR     58  57  97 SW3       30.12R
IOWA CITY      CLEAR     65  62  90 CALM      30.11S
MT. PLEASANT * CLEAR     59  57  94 CALM      30.11R FOG
MUSCATINE *    CLEAR     59  57  94 CALM      30.11R
QUAD CITIES    CLEAR     61  58  90 CALM      30.11R
$$

IAZ062-063-075>077-085>089-095>099-021000-
   SOUTHEAST IOWA

CITY           SKY/WX    TMP DP  RH WIND       PRES   REMARKS
BURLINGTON     PTCLDY    62  62 100 E5        30.11R
FAIRFIELD *    CLEAR     61  59  94 CALM      30.11S FOG
FORT MADISON * FOG       61  61 100 CALM      30.11S VSB 1
KEOKUK *       CLEAR     59  59 100 CALM      30.10R
OSKALOOSA *      N/A     63  61  94 CALM      30.11S
CENTERVILLE *  CLEAR     55  55 100 CALM      30.13S
OTTUMWA        CLEAR     58  58 100 SW3       30.11R FOG
WASHINGTON *   CLEAR     63  63 100 W3        30.11R
$$

ABBREVIATIONS USED IN REMARKS
   TC - TEMPERATURES IN CELSIUS
  WCI - WIND CHILL INDEX
   HX - HEAT INDEX
  VSB - VISIBILITY
$$




USA.gov is the U.S. government's official web portal to all federal, state and local government web resources and services.